Air Resources Laboratory banner image
Air Resources Laboratory web site National Oceanic and Atmospheric Administration (NOAA)

la roundup


Office: LIX

ASUS44 KLIX 121013
RWRLA
LOUISIANA WEATHER ROUNDUP
NATIONAL WEATHER SERVICE NEW ORLEANS LA
400 AM CST TUE DEC 12 2017

NOTE: "FAIR" INDICATES FEW OR NO CLOUDS BELOW 12,000 FEET WITH NO
      SIGNIFICANT WEATHER AND/OR OBSTRUCTIONS TO VISIBILITY.
      SKY/WX - SKY CONDITION AND SIGNIFICANT WEATHER.
      TMP - AIR TEMPERATURE.    DP   - DEWPOINT TEMPERATURE.
      RH  - RELATIVE HUMIDITY.  PRES - PRESSURE.
      HX  - HEAT INDEX.         WCI  - WIND CHILL INDEX.

*  THESE STATIONS ARE NOT NWS OR FAA STATIONS AND ARE NOT UNDER
   NWS QUALITY CONTROL.

LAZ040-048-061>063-065-066-069-121100-
SOUTHEAST LOUISIANA

CITY           SKY/WX    TMP DP  RH WIND       PRES   REMARKS
N.O. INTL ARPT CLEAR     55  47  74 W15       30.08F
N.O. LAKEFRONT CLEAR     56  47  71 W16       30.07F
N.O. DOWNTOWN* FAIR      51  46  83 VRB6      30.09F
RESERVE*       FAIR      52  46  77 W8        30.09S
SLIDELL        CLEAR     50  46  86 CALM      30.07R
BATON ROUGE    CLEAR     45  41  86 W7        30.10R
BOOTHVILLE     CLEAR     57  52  83 W12       30.10F
BELLE CHASSE   CLEAR     52  50  93 SW8       30.09S
BOGALUSA*      NOT AVBL
GALLIANO*      SUNNY     53  47  82 W8        30.11S
NEW ROADS*     FAIR      44  39  82 W7        30.11S
GONZALES*      FAIR      50  45  83 W6        30.09S
HAMMOND*       CLEAR     45  43  93 N6        30.08S
HOUMA*         CLEAR     51  49  93 W6        30.11S
PORT FOURCHON* PTSUNNY   55  52  88 W10       30.12F

$$

LAZ041-044-053-054-121100-
SOUTHWEST LOUISIANA

CITY           SKY/WX    TMP DP  RH WIND       PRES   REMARKS
LAKE CHARLES   CLEAR     49  43  80 NW6       30.15R
LAFAYETTE      CLEAR     50  46  86 W7        30.13R
PATTERSON      CLEAR     53  49  86 W10       30.12S
SALT POINT       N/A     52  50  93 W3        30.11F
NEW IBERIA     CLEAR     52  44  74 W9        30.13R
CHENAULT AIRPK CLEAR     49  42  74 NW9       30.16S

$$

LAZ027-028-121100-
CENTRAL LOUISIANA

CITY           SKY/WX    TMP DP  RH WIND       PRES   REMARKS
FORT POLK      CLEAR     46  37  70 NW6       30.16R
ALEXANDRIA INT PTCLDY    43  35  73 NW8       30.13R
ALEXANDRIA     PTCLDY    42  35  76 W3        30.13R

$$

LAZ001-002-121100-
NORTHWEST LOUISIANA

CITY           SKY/WX    TMP DP  RH WIND       PRES   REMARKS
SHREVEPORT     CLEAR     53  25  33 N15G23    30.18R
BARKSDALE AFB  CLEAR     46  23  40 NW10      30.18R
DTN SHREVEPORT CLEAR     50  25  37 NW12      30.19R

$$

LAZ014-016-121100-
NORTHEAST LOUISIANA

CITY           SKY/WX    TMP DP  RH WIND       PRES   REMARKS
MONROE         PTCLDY    53  27  36 N13       30.13R
TALLULAH       PTCLDY    47  33  58 NW9       30.10R

$$



ASUS44 KLIX 121013
RWRLIX
NEW ORLEANS REGIONAL WEATHER ROUNDUP
NATIONAL WEATHER SERVICE NEW ORLEANS LA
400 AM CST TUE DEC 12 2017

NOTE: "FAIR" INDICATES FEW OR NO CLOUDS BELOW 12,000 FEET WITH NO
      SIGNIFICANT WEATHER AND/OR OBSTRUCTIONS TO VISIBILITY.
      SKY/WX - SKY CONDITION AND SIGNIFICANT WEATHER.
      TMP - AIR TEMPERATURE.     DP    - DEWPOINT TEMPERATURE.
      RH  - RELATIVE HUMIDITY.   PRES  - PRESSURE.
      HI  - HEAT INDEX.          WCI   - WIND CHILL INDEX.

*  THESE STATIONS ARE NOT NWS OR FAA STATIONS AND ARE NOT UNDER
   NWS QUALITY CONTROL.

LAZ038-040-048-061>063-065>067-069-121100-
SOUTHEAST LOUISIANA

CITY           SKY/WX    TMP DP  RH WIND       PRES   REMARKS
N.O. INTL ARPT CLEAR     55  47  74 W15       30.08F
N.O. LAKEFRONT CLEAR     56  47  71 W16       30.07F
N.O. DOWNTOWN*   N/A     51  46  83 VRB6      30.09F
RESERVE*         N/A     52  46  77 W8        30.09S
SLIDELL        CLEAR     50  46  86 CALM      30.07R
BATON ROUGE    CLEAR     45  41  86 W7        30.10R
BOOTHVILLE     CLEAR     57  52  83 W12       30.10F
BELLE CHASSE   CLEAR     52  50  93 SW8       30.09S
BOGALUSA*      NOT AVBL
GALLIANO*      SUNNY     53  47  82 W8        30.11S
NEW ROADS*       N/A     44  39  82 W7        30.11S
GONZALES*        N/A     50  45  83 W6        30.09S
HAMMOND*       CLEAR     45  43  93 N6        30.08S
HOUMA*         CLEAR     51  49  93 W6        30.11S
PORT FOURCHON* PTSUNNY   55  52  88 W10       30.12F

$$

MSZ070-080>082-121100-
SOUTHERN MISSISSIPPI

CITY           SKY/WX    TMP DP  RH WIND       PRES   REMARKS
MCCOMB         CLEAR     47  39  74 NW7       30.07R
GULFPORT       CLEAR     50  46  86 W8        30.05S
BILOXI         CLEAR     51  45  80 W5        30.04S
PASCAGOULA     CLEAR     48  44  86 W5        30.04F

$$

COASTAL OBSERVATIONS
LAKE AND NEARSHORE STATIONS

STATION/POSITION TIME  TEMP    WIND        PRES    WAVE
                       AIR SEA DIR/SP/G            HT/PER
                 (UTC) (F)     (DEG/KT/KT) (MB)    (FT/S)
PASCAGOULA       0936   53     270/ 13/ 19 1016.8
WAVELAND YACHT   0936   52 51  280/  6/  8 1017.4
GRAND ISLE       0936   58 60  280/ 14/ 17 1019.4
SOUTHWEST PASS   0936   63 57  290/ 15/ 23 1019.9
NEW CANAL        0936   56 56  240/  8/ 12 1018.2
SHELL BEACH      0936   51 54  240/ 11/ 13 1018.4

OFFSHORE STATIONS

STATION/POSITION TIME  TEMP    WIND        PRES    WAVE
                       AIR SEA DIR/SP/G            HT/PER
                 (UTC) (F)     (DEG/KT/KT) (MB)    (FT/S)
64 S DAUPHIN ISL 0950   66 74  270/ 23/ 27 1018.5    5/ 5

$$





Office: LCH ASUS44 KLCH 121010 RWRLCH REGIONAL WEATHER ROUNDUP NATIONAL WEATHER SERVICE LAKE CHARLES LA 400 AM CST TUE DEC 12 2017 Note: "fair" indicates few or no clouds below 12,000 feet with no significant weather and/or obstructions to visibility. ACROSS SOUTHEAST TEXAS CITY SKY/WX TMP DP RH WIND PRES REMARKS BEAUMONT PTCLDY 47 41 80 NW8 30.17R BEAUMONT CITY FAIR 46 39 79 NW5 30.19R ORANGE SUNNY 51 43 73 N6 30.19R JASPER CLEAR 44 38 79 CALM 30.21R $$ ACROSS CENTRAL LOUISIANA CITY SKY/WX TMP DP RH WIND PRES REMARKS LEESVILLE CLEAR 46 37 70 NW6 30.16R FULLERTON FAIR 50 35 56 NW3 30.13R ALEXANDRIA INT PTCLDY 43 35 73 NW8 30.13R ESLER FIELD PTCLDY 42 35 76 W3 30.13R DERIDDER FAIR N/A N/A N/A NW3 30.18R OAKDALE SUNNY 35 33 94 CALM 30.15R OPELOUSAS FAIR 47 41 77 W5 30.13R $$ ACROSS SOUTHWEST AND SOUTH CENTRAL LOUISIANA CITY SKY/WX TMP DP RH WIND PRES REMARKS SULPHUR MOSUNNY 46 42 85 NW6 30.17S LAKE CHARLES CLEAR 49 43 80 NW6 30.15R CHENNAULT INT CLEAR 49 42 74 NW9 30.16S CAMERON PHI SUNNY 54 45 71 W10 30.16R DEQUINCY FAIR 45 37 74 NW5 30.17R JENNINGS FAIR 45 42 89 W6 30.15S LAFAYETTE CLEAR 50 46 86 W7 30.13R NEW IBERIA CLEAR 52 44 74 W9 30.13R ABBEVILLE FAIR 50 48 93 W10 30.13S PATTERSON CLEAR 53 49 86 W10 30.12S SALT POINT N/A 52 50 93 W3 30.11F $$ SELECTED SITES ACROSS THE REGION CITY SKY/WX TMP DP RH WIND PRES REMARKS HOUSTON BUSH MOCLDY 52 38 58 NW6 30.21R HOUSTON HOBBY CLOUDY 49 40 71 W8 30.20R GALVESTON PTCLDY 52 46 80 W10 30.20R COLLEGE STAT CLEAR 53 30 41 N14 30.24R CONROE CLEAR 51 34 52 N8 30.20S HUNTSVILLE CLEAR 49 32 52 N3 30.23R LUFKIN CLEAR 43 33 68 NW5 30.22R SHREVEPORT CLEAR 53 25 33 N15G23 30.18R MONROE PTCLDY 53 27 36 N13 30.13R NATCHEZ MS CLEAR 50 36 58 NW3 30.11R BATON ROUGE CLEAR 45 41 86 W7 30.10R N.O. INTL ARPT CLEAR 55 47 74 W15 30.08F SLIDELL CLEAR 50 46 86 CALM 30.07R $$ MARINE REPORTS STATION/POSITION TIME SKY/WX TEMP WIND PRES VSBY AIR SEA DIR/SP/G (UTC) (F) (DEG/KT/KT) (MB) (MI) BUOY 30 S HIGH I 0850 60 60 270/ 16/ 19 1021.6 WVE H/P(F/S)= 2/ 4 SEA RIM ST PARK 1000 49 290/ 7/ 9 1022.3R PORT ARTHUR 0936 53 56 300/ 8/ 12 1021.6R SABINE PASS N 0936 50 58 280/ 5/ 10 1023.0R TEXAS POINT NOT AVBL CALCASIEU PASS 0936 54 56 290/ 10/ 14 1019.8R LK CHARLES BEACH 0936 53 57 1020.7R MARSH ISLAND 0900 63 N/A FRESH WATER LOCK 0936 57 54 260/ 9/ 11 1020.3R AMERADA PASS 0936 56 54 220/ 3/ 6 1019.8F $$